{"data":{"norad_id":68167,"intl_designator":"2026-050A","name":"STARLINK-36969","alt_names":[],"object_type":"PAYLOAD","status":"ACTIVE","operator":null,"country":"US","launch_date":"2026-03-14","launch_site_code":"AFETR","launch_vehicle":null,"mission":null,"orbit_class":"UNKNOWN","rcs_meters":null,"size_class":null,"mass_kg":null,"dimensions":null,"purposes":["comms"],"wikipedia_slug":null,"has_3d_model":false,"image_url":null,"decayed_at":null,"tle_current":{"epoch":"2026-09-20T00:10:19.187328Z","epoch_age_seconds":98721,"freshness":"FRESH","line1":"1 68167U 26050A   26263.00716652  .00017012  00000+0  51340-3 0  9993","line2":"2 68167  53.1590  79.9391 0001475  83.6708 276.4463 15.34404165 30491","mean_motion":15.34404165,"eccentricity":0.0001475,"inclination_deg":53.159,"raan_deg":79.9391,"arg_perigee_deg":83.6708,"mean_anomaly_deg":276.4463,"bstar":0.0005134,"rev_number":3049,"period_min":93.847503340165,"perigee_km":461.68183886788,"apogee_km":463.69988308687,"semimajor_km":6840.8278609774,"source":"CELESTRAK","updated_at":"2026-09-20T09:00:43.797897Z"}}}